Regional Weather Roundup
Issued by NWS

Home | Current Version | Previous Version | Text Only | Print | Product List | Glossary Off
Versions: 1 2 3 4 5 6 7 8 9 10 11 12 13 14 15 16 17 18 19 20 21 22 23 24 25 26 27 28 29 30 31 32 33 34 35 36 37 38 39 40 41 42 43 44 45 46 47 48 49 50

000
ASUS43 KLSX 221257
RWRMO

WEATHER SUMMARY FOR MISSOURI
NATIONAL WEATHER SERVICE SPRINGFIELD MO
700 AM CST WED NOV 22 2017

NOTE: "FAIR" INDICATES FEW OR NO CLOUDS BELOW 12,000 FEET WITH NO
       SIGNIFICANT WEATHER AND/OR OBSTRUCTIONS TO VISIBILITY.
       CURRENT SKY AND/OR WEATHER CONDITIONS ARE NOT AVAILABLE FOR
       CHILLICOTHE AND FARMINGTON.

MOZ001>031-035>038-043-044-053-054-221400-
...NORTHERN AND WESTERN MISSOURI...

CITY           SKY/WX    TMP DP  RH WIND       PRES   REMARKS
KANSAS CTY INT CLOUDY    20  12  71 CALM      30.40F
LEE`S SUMMIT   CLOUDY    21  13  71 CALM      30.42R
ST JOSEPH      CLOUDY    14  10  84 CALM      30.43S
CHILLICOTHE      N/A     17  13  84 CALM      30.44S

$$
MOZ066>068-077>081-088>096-101>105-221400-
...SOUTHWEST MISSOURI...

CITY           SKY/WX    TMP DP  RH WIND       PRES   REMARKS
SPRINGFIELD    CLOUDY    24  16  71 CALM      30.37S
JOPLIN         CLOUDY    22  18  85 N3        30.42S
BRANSON        CLEAR     25  18  74 N5        30.39R WCI  19

$$
MOZ032>034-039>042-045>050-055>058-069>072-221400-
...CENTRAL MISSOURI...

CITY           SKY/WX    TMP DP  RH WIND       PRES   REMARKS
COLUMBIA       NOT AVBL
JEFFERSON CITY CLOUDY    23  16  74 CALM      30.44R
ROLLA          PTCLDY    19  14  81 CALM      30.40R
SEDALIA        CLOUDY    20  18  92 N6        30.42S WCI  12
WARRENSBURG    CLOUDY    21  14  73 NW3       30.42S

$$
MOZ051-052-059>065-221400-
...EAST CENTRAL MISSOURI...

CITY           SKY/WX    TMP DP  RH WIND       PRES   REMARKS
ST LOUIS INTL  MOCLDY    24  17  74 N7        30.41R WCI  16

$$
MOZ072>076-082>087-097>100-106>115-221400-
...SOUTH CENTRAL AND SOUTHEAST MISSOURI...

CITY           SKY/WX    TMP DP  RH WIND       PRES   REMARKS
CAPE GIRARDEAU PTCLDY    28  20  71 N6        30.39R WCI  22
POPLAR BLUFF   PTCLDY    29  21  72 N7        30.39R WCI  22
WEST PLAINS    CLOUDY    24  16  71 N6        30.37R WCI  17

$$



USA.gov is the U.S. government's official web portal to all federal, state and local government web resources and services.